sat.trackr.live / text

‹ back to catalog

STARLINK-2159

NORAD 47745 · 2021-017Z

PAYLOAD ACTIVE UNKNOWN

§ Identity

Operator
Country
US
Launch date
2021-03-04
Launch site
AFETR
Launch vehicle
Mass (kg)
RCS (m²)

Purposes: comms

External: N2YO · Heavens-Above · Gunter

§ Orbital elements

Epoch: 2026-05-24T21:10:45.524640Z

Period
92.58 min
Inclination
53.1546°
Eccentricity
0.0006929
Mean motion
15.55434139 rev/d
Perigee alt
396.2 km
Apogee alt
405.6 km
Semi-major
6,779.0 km
B*
6.9106e-4
RAAN
199.5904°
Arg perigee
353.2198°
Mean anomaly
6.8719°
Rev number
28,965

§ Raw data

STARLINK-21591 47745U 21017Z   26144.88247135  .00047768  00000+0  69106-3 0  99992 47745  53.1546 199.5904 0006929 353.2198   6.8719 15.55434139289658

JSON: /api/v1/satellites/47745 · /tle

For live sub-satellite position, see the globe view (requires WebGL).

§ Visibility from observer

Set your observer location to see the next 7 days of passes ≥ 10°. The values pass through the URL so the page stays shareable.

No JS? Fill the form by hand. The geolocation button needs JavaScript.